Kuiper-00245

operational
NORAD ID: 67150 Int'l Des: 2025-301 Owner: KUIP Country: US Constellation: kuiper
LEOCIRCULAR

About Kuiper-00245

Description loading...

Live Position

Loading 3D Globe...

Upcoming Passes

Altitude History

Altitude vs Time

uPlot chart will show altitude changes over time

Two-Line Element Set

1 67150C 25301T 25350.86741898 .00012966 00000+0 36885-3 0 3503
2 67150 51.8719 105.2099 0005042 100.2259 242.0190 15.35516466 19
Epoch: Dec 16, 2025 • Age: 51 hours

Current Status

Altitude 460.1 km
Velocity 7.64 km/s
Sub-Earth Point 36.70°N, 5.99°E
Launch Date Dec 16, 2025
Age 2 days
Type internet

Technical Details

Classification Payload
Mass 490.00 kg
Dry Mass 490.00 kg
Total Mass 490.00 kg
Length 1.80 m
Diameter 0.70 m
Span 5.00 m
Shape Box + 2 pan
Manufacturer KUIP
Bus Type Kuiper
Phase Status In Orbit
Owner/State KUIP/US

Large Constellations

Loading constellations...